Weather in Chakanikha

Russia / Rostov Oblast     47°16′35″N   40°49′31″E
temp.,
°C
wind,
m/s
gust,
m/s
humid.,
%
clouds,
%
prec.,
mm/h
press.,
hPa
HPBL,
m
1 march, mon
mon100:00+2wsw2390100 0.1 102091
03:00+1w369499 0.3 1021164
06:00+1wsw239780 0.0 102298
09:00+2w469790 0.1 1023313
12:00+2w3489100 0.1 1025430
15:00+3wnw3486100 0.2 1025407
18:00+2wnw239494 0.2 1026135
21:00+1wnw129372 0.3 102822
2 march, tue
tue200:000ene239580 0.0 102872
03:000ne128773 0.0 102839
06:000ssw128789 0.0 102781
09:00+2wsw458484 0.0 1028455
12:00+5w796252 0.0 10251229
15:00+5w9125945 0.0 10221127
18:00+3wsw8146467 0.0 1020845
21:00+2wsw8167783 0.0 1019846
3 march, wed
wed300:00+3wsw91777100 0.0 1016801
03:00+2wsw101696100 0.2 1014822
06:00+2w71297100 2.8 1013578
09:00+2wnw5997100 4.3 1015557
12:00+5nw7106792 0.3 10171353
15:00+4nw796295 0.3 10191397
18:00+2wnw51066100 0.1 1020498
21:000nw4107469 0.1 1023351
4 march, thu
thu400:00−1w36730 0.0 1024155
03:00−1wsw35750 0.0 1025145
06:00−1wsw49770 0.0 1025231
09:00+2wsw610620 0.0 1025655
12:00+5wsw710530 0.0 10241040
15:00+6wsw710543 0.0 10221132
18:00+3wsw5106821 0.0 1020288
21:00+1sw5127110 0.0 1020356
5 march, fri
fri500:00+1sw614760 0.0 1019437
03:00+1sw615870 0.0 1018492
06:00+1wsw615901 0.0 1018477
09:00+4wsw813759 0.0 1018811
12:00+7wsw811630 0.0 10181039
15:00+9wsw811580 0.0 10171299
18:00+7wsw510650 0.0 1017345
21:00+4sw36790 0.0 1017127